[[{"header":{"parameterUnit":"m.s-1","parameterCategory":1,"la1":30.2991,"la2":30.254,"lo1":-89.0895,"lo2":-89.0444,"dy":0.0017,"dx":0.0017,"nx":28,"ny":28,"refTime":"2024-03-23T21:00:00:Z","depth":0,"parameterNumber":2,"parameterNumberName":"U-component_of_WINDS"},"data":[0,0,0,0,0,0,0,0,0,0,0,0,0,0,0,0,0,0,0,0,0,0,0,0,0,0,0,0,0,0,0,0,0,0,0,0,0,0,0,0,0,0,0,0,0,0,0,0,0,0,0,0,0,0,0,0,0,0,-1.1342,-1.1343,0,-1.1455,-1.1456,-1.1457,-1.1486,-1.1485,-1.1485,-1.1484,-1.1602,-1.1605,-1.1609,0,0,0,0,0,0,0,0,0,0,0,0,0,-1.1151,-1.1155,-1.1341,-1.1343,-1.1344,-1.1454,-1.1456,-1.1458,-1.1486,-1.1485,-1.1484,-1.1484,-1.1601,-1.1605,-1.161,0,0,0,0,0,0,0,0,0,0,0,0,0,-1.1246,-1.1156,-1.1341,-1.1372,-1.1376,-1.1454,-1.1456,-1.1458,-1.1486,-1.1485,-1.1484,-1.1483,-1.1599,-1.1605,-1.161,-1.1667,0,0,-1.1628,-1.163,0,0,0,0,0,0,0,0,-1.1241,-1.1253,-1.1366,-1.137,-1.1374,-1.1455,-1.1432,-1.1528,-1.1487,-1.1444,-1.1484,-1.1483,-1.1554,-1.1563,-1.1587,-1.1673,-1.1678,-1.1628,-1.1632,-1.1634,-1.1636,0,0,0,0,0,0,0,-1.1234,-1.1248,-1.1386,-1.1367,-1.1373,-1.138,-1.1393,-1.1451,-1.1504,-1.1448,-1.145,-1.1463,-1.1556,-1.1581,-1.159,-1.1679,-1.1628,-1.1633,-1.1637,-1.1639,-1.1817,-1.1818,0,0,0,0,0,0,-1.1222,-1.1243,-1.1383,-1.139,-1.1303,-1.1385,-1.1398,-1.143,-1.1503,-1.1513,-1.1464,-1.1464,-1.1572,-1.1583,-1.1594,-1.1666,-1.1634,-1.1639,-1.1643,-1.1816,-1.1818,-1.1819,0,0,0,0,0,0,-1.1218,-1.1234,-1.1378,-1.1317,-1.1336,-1.1389,-1.1425,-1.1433,-1.1459,-1.1515,-1.1525,-1.148,-1.1572,-1.1586,-1.1649,-1.1671,-1.1642,-1.1647,-1.1814,-1.1816,-1.1818,-1.181,0,0,0,0,0,0,-1.1212,-1.1233,-1.1255,-1.1317,-1.1339,-1.143,-1.1426,-1.1436,-1.1468,-1.1469,-1.1533,-1.1543,-1.1572,-1.164,-1.1654,-1.1678,-1.1652,-1.1813,-1.1815,-1.1818,-1.1808,-1.1811,-1.1814,0,0,0,0,0,-1.1205,-1.1248,-1.1256,-1.1272,-1.1367,-1.1432,-1.1444,-1.1477,-1.147,-1.1492,-1.1529,-1.1541,-1.1665,-1.1646,-1.1663,-1.1688,-1.1812,-1.1815,-1.1817,-1.1807,-1.1811,-1.1814,0,0,0,0,0,0,-1.1188,-1.1257,-1.1266,-1.133,-1.1375,-1.1436,-1.1466,-1.1479,-1.1527,-1.1526,-1.1565,-1.1579,-1.1639,-1.167,-1.1647,-1.1747,-1.1738,-1.1745,-1.1725,-1.1729,-1.1731,-1.1724,-1.1656,0,0,0,0,0,-1.1191,-1.1237,-1.1295,-1.1346,-1.1368,-1.1413,-1.1442,-1.1463,-1.1511,-1.153,-1.1571,-1.1618,-1.1668,-1.17,-1.1748,-1.1812,-1.1827,-1.1838,-1.184,-1.1842,-1.1848,-1.1884,-1.189,-1.1829,-1.1829,-1.1829,0,0,-1.1199,-1.1242,-1.1269,-1.1343,-1.138,-1.1428,-1.1429,-1.1478,-1.1514,-1.1538,-1.16,-1.1631,-1.1685,-1.1749,-1.1779,-1.1776,-1.1868,-1.1846,-1.1847,-1.1852,-1.1888,-1.1894,-1.1899,-1.1831,-1.183,-1.183,0,0,-1.1238,-1.1275,-1.1321,-1.1358,-1.1414,-1.1443,-1.1454,-1.1514,-1.1535,-1.1597,-1.1616,-1.1659,-1.1744,-1.1782,-1.1812,-1.1864,-1.1877,-1.1878,-1.1893,-1.1928,-1.1933,-1.1937,-1.1957,-1.1963,-1.1883,-1.1883,-1.1883,0,-1.1241,-1.1312,-1.1344,-1.1393,-1.1425,-1.1448,-1.1496,-1.153,-1.1599,-1.1621,-1.1616,-1.1723,-1.1761,-1.1834,-1.1846,-1.187,-1.1884,-1.1872,-1.1929,-1.1934,-1.1939,-1.1958,-1.1965,-1.1883,-1.1883,-1.1883,-1.1883,0,-1.1314,-1.1363,-1.1394,-1.1459,-1.1494,-1.1542,-1.1582,-1.1614,-1.1631,-1.1661,-1.1724,-1.177,-1.1829,-1.1847,-1.1865,-1.1923,-1.192,-1.1922,-1.1914,-1.1944,-1.1963,-1.197,-1.1883,-1.1883,-1.1883,-1.1883,0,0,-1.1347,-1.1427,-1.1439,-1.1468,-1.153,-1.1569,-1.1618,-1.1675,-1.1702,-1.1748,-1.1791,-1.1861,-1.1863,-1.1898,-1.1919,-1.195,-1.1989,-1.1949,-1.195,-1.1955,-1.2056,-1.2055,-1.2062,-1.1996,-1.1998,-1.1999,-1.2051,0,-1.1394,-1.1482,-1.1511,-1.1585,-1.163,-1.1652,-1.1694,-1.1737,-1.1766,-1.1809,-1.1841,-1.1891,-1.189,-1.1911,-1.1941,-1.1977,-1.2009,-1.1974,-1.2038,-1.2039,-1.2025,-1.2072,-1.2071,-1.2119,-1.2059,-1.206,-1.2061,0,-1.1462,-1.1508,-1.1586,-1.1642,-1.1662,-1.17,-1.1754,-1.1795,-1.1844,-1.1862,-1.19,-1.1919,-1.1972,-1.1959,-1.2032,-1.2007,-1.2035,-1.2056,-1.2059,-1.2067,-1.2053,-1.2083,-1.2134,-1.2142,-1.2072,-1.2071,-1.2071,0,-1.148,-1.1561,-1.1618,-1.1643,-1.1709,-1.1735,-1.1764,-1.1812,-1.1844,-1.1891,-1.1912,-1.1965,-1.1994,-1.2034,-1.2067,-1.2055,-1.2137,-1.2128,-1.2155,-1.2155,-1.2174,-1.2172,-1.2231,-1.2188,-1.2188,-1.2188,-1.2188,0,-1.1531,-1.1577,-1.1627,-1.1662,-1.1715,-1.1748,-1.18,-1.183,-1.1872,-1.1914,-1.1935,-1.1974,-1.2014,-1.2058,-1.2084,-1.2141,-1.2154,-1.2171,-1.2178,-1.217,-1.2168,-1.219,-1.2188,-1.219,-1.219,-1.2189,-1.2189,0,-1.156,-1.1595,-1.1659,-1.1716,-1.1731,-1.1768,-1.1817,-1.1852,-1.1881,-1.1933,-1.1948,-1.1993,-1.2046,-1.2083,-1.2151,-1.2168,-1.223,-1.2235,-1.2213,-1.2217,-1.2243,-1.224,-1.2319,-1.2332,-1.2279,-1.228,-1.228,0,-1.1591,-1.1628,-1.1688,-1.1717,-1.1746,-1.1793,-1.1825,-1.1858,-1.1891,-1.1949,-1.1977,-1.2031,-1.2077,-1.216,-1.22,-1.2252,-1.226,-1.2284,-1.2268,-1.2259,-1.2262,-1.226,-1.2264,-1.2287,-1.2287,-1.2288,-1.2288,0,-1.1643,-1.1658,-1.1704,-1.1755,-1.1793,-1.1835,-1.1878,-1.19,-1.1941,-1.1977,-1.2031,-1.2066,-1.2135,-1.2189,-1.2244,-1.2275,-1.2289,-1.2292,-1.2302,-1.2295,-1.2281,-1.229,-1.2222,-1.2291,-1.229,-1.229,-1.229,-1.229,-1.1676,-1.1709,-1.1756,-1.1806,-1.1841,-1.188,-1.1916,-1.1949,-1.1994,-1.2053,-1.2069,-1.2126,-1.2173,-1.2249,-1.228,-1.2325,-1.2323,-1.2336,-1.234,-1.2343,-1.2344,-1.2272,-1.2335,-1.2335,-1.2335,-1.2335,-1.2335,0,-1.173,-1.1761,-1.1806,-1.1864,-1.1904,-1.1911,-1.1959,-1.1991,-1.204,-1.2083,-1.2126,-1.2188,-1.224,-1.2283,-1.2337,-1.2364,-1.2372,-1.2378,-1.2377,-1.2384,-1.2342,-1.2329,-1.237,-1.237,-1.237,-1.237,-1.237,-1.237,-1.1762,-1.1819,-1.184,-1.1914,-1.1945,-1.2,-1.2026,-1.2062,-1.2097,-1.2165,-1.2207,-1.2235,-1.2278,-1.2334,-1.2382,-1.2394,-1.2413,-1.2417,-1.243,-1.239,-1.2387,-1.2383,-1.2371,-1.2421,-1.2421,-1.2469,-1.2469,-1.2469]},{"header":{"parameterUnit":"m.s-1","parameterCategory":1,"la1":30.2991,"la2":30.254,"lo1":-89.0895,"lo2":-89.0444,"dy":0.0017,"dx":0.0017,"nx":28,"ny":28,"refTime":"2024-03-23T21:00:00:Z","depth":0,"parameterNumber":3,"parameterNumberName":"V-component_of_WINDS"},"data":[0,0,0,0,0,0,0,0,0,0,0,0,0,0,0,0,0,0,0,0,0,0,0,0,0,0,0,0,0,0,0,0,0,0,0,0,0,0,0,0,0,0,0,0,0,0,0,0,0,0,0,0,0,0,0,0,0,0,-5.0306,-5.0308,0,-5.0427,-5.0429,-5.043,-5.0399,-5.0396,-5.0394,-5.0392,-5.0517,-5.0522,-5.0528,0,0,0,0,0,0,0,0,0,0,0,0,0,-5.0049,-5.0054,-5.0306,-5.0308,-5.0309,-5.0427,-5.0429,-5.0431,-5.0399,-5.0396,-5.0393,-5.0391,-5.0515,-5.0521,-5.0528,0,0,0,0,0,0,0,0,0,0,0,0,0,-5.0164,-5.0055,-5.0306,-5.0308,-5.0309,-5.0427,-5.0429,-5.0431,-5.04,-5.0396,-5.0393,-5.0389,-5.0513,-5.0521,-5.0529,-5.0653,0,0,-5.0555,-5.0558,0,0,0,0,0,0,0,0,-5.0158,-5.0174,-5.0306,-5.0308,-5.031,-5.0394,-5.0384,-5.0505,-5.0401,-5.0366,-5.0392,-5.0388,-5.0479,-5.049,-5.0521,-5.0658,-5.0664,-5.0555,-5.056,-5.0564,-5.0566,0,0,0,0,0,0,0,-5.015,-5.0168,-5.0354,-5.0308,-5.031,-5.0303,-5.0315,-5.0407,-5.0441,-5.0368,-5.0366,-5.0381,-5.0479,-5.0513,-5.0523,-5.0666,-5.0555,-5.0562,-5.0568,-5.0571,-5.0912,-5.0915,0,0,0,0,0,0,-5.014,-5.0162,-5.035,-5.0358,-5.0223,-5.031,-5.0324,-5.0371,-5.044,-5.0447,-5.0384,-5.0379,-5.05,-5.0514,-5.0527,-5.0678,-5.0564,-5.0572,-5.0576,-5.0908,-5.0912,-5.0917,0,0,0,0,0,0,-5.0135,-5.0157,-5.0345,-5.0259,-5.0283,-5.0319,-5.0371,-5.0375,-5.0408,-5.0452,-5.0458,-5.0412,-5.0498,-5.0516,-5.0622,-5.0681,-5.0575,-5.0583,-5.0903,-5.0909,-5.0915,-5.0978,0,0,0,0,0,0,-5.0128,-5.0156,-5.0203,-5.0261,-5.0288,-5.0438,-5.0375,-5.038,-5.0423,-5.0418,-5.0479,-5.0486,-5.0496,-5.061,-5.063,-5.0691,-5.059,-5.0898,-5.0906,-5.0913,-5.0971,-5.0986,-5.0998,0,0,0,0,0,-5.0118,-5.0216,-5.0205,-5.0228,-5.0347,-5.0441,-5.0457,-5.0466,-5.0428,-5.0476,-5.0503,-5.0484,-5.0671,-5.0621,-5.0644,-5.0708,-5.0894,-5.0903,-5.0912,-5.0965,-5.0983,-5.0998,0,0,0,0,0,0,-5.0164,-5.0224,-5.0213,-5.0331,-5.0382,-5.0436,-5.0497,-5.0485,-5.0547,-5.054,-5.0549,-5.0563,-5.0672,-5.07,-5.0643,-5.0831,-5.0777,-5.0791,-5.0809,-5.0827,-5.084,-5.0832,-5.0596,0,0,0,0,0,-5.0188,-5.0259,-5.0307,-5.0408,-5.0433,-5.0461,-5.0502,-5.0505,-5.0557,-5.0579,-5.0614,-5.0666,-5.0736,-5.0783,-5.085,-5.0974,-5.0988,-5.103,-5.1043,-5.1054,-5.1067,-5.1136,-5.1155,-5.0947,-5.0947,-5.0946,0,0,-5.0239,-5.028,-5.0324,-5.0418,-5.0457,-5.0531,-5.0479,-5.0559,-5.0614,-5.0591,-5.0694,-5.0721,-5.078,-5.0896,-5.0949,-5.0923,-5.1127,-5.1066,-5.1074,-5.1081,-5.1147,-5.1167,-5.1184,-5.0953,-5.0952,-5.0951,0,0,-5.0369,-5.0406,-5.0494,-5.0535,-5.0595,-5.0612,-5.0633,-5.0689,-5.0707,-5.081,-5.0794,-5.086,-5.098,-5.1023,-5.1061,-5.1206,-5.1191,-5.1228,-5.13,-5.1367,-5.1383,-5.1398,-5.1451,-5.147,-5.124,-5.124,-5.124,0,-5.0424,-5.0535,-5.0541,-5.0624,-5.0666,-5.0647,-5.0737,-5.0775,-5.0854,-5.0884,-5.0854,-5.1005,-5.1043,-5.1169,-5.1205,-5.1235,-5.1261,-5.1222,-5.138,-5.1395,-5.1409,-5.146,-5.1479,-5.1244,-5.1244,-5.1243,-5.1243,0,-5.06,-5.0677,-5.0741,-5.0818,-5.0867,-5.0952,-5.0973,-5.1021,-5.102,-5.1041,-5.1146,-5.119,-5.1267,-5.1296,-5.1296,-5.1423,-5.1405,-5.1377,-5.1323,-5.1433,-5.1481,-5.15,-5.125,-5.1249,-5.1247,-5.1246,0,0,-5.0764,-5.0843,-5.0866,-5.0901,-5.0965,-5.1025,-5.111,-5.1184,-5.1226,-5.1281,-5.1353,-5.1456,-5.143,-5.1473,-5.1476,-5.1535,-5.1649,-5.15,-5.1502,-5.1528,-5.1793,-5.1815,-5.1837,-5.1639,-5.1642,-5.1645,-5.1789,0,-5.0901,-5.105,-5.1058,-5.1194,-5.1265,-5.1248,-5.1322,-5.137,-5.1391,-5.1456,-5.1479,-5.1552,-5.1513,-5.1538,-5.1595,-5.1623,-5.1703,-5.1613,-5.1707,-5.171,-5.1694,-5.1862,-5.1886,-5.2019,-5.1807,-5.1811,-5.1813,0,-5.108,-5.1141,-5.1283,-5.1338,-5.1368,-5.1435,-5.1504,-5.1565,-5.1618,-5.163,-5.1677,-5.1673,-5.176,-5.1701,-5.1822,-5.1761,-5.1799,-5.1819,-5.1824,-5.1835,-5.1769,-5.1879,-5.2062,-5.2083,-5.1842,-5.184,-5.1838,0,-5.1187,-5.1304,-5.1405,-5.1435,-5.15,-5.1548,-5.1577,-5.1627,-5.1671,-5.1732,-5.1761,-5.183,-5.1869,-5.1923,-5.1937,-5.1893,-5.2058,-5.2,-5.2071,-5.2071,-5.2108,-5.2106,-5.2301,-5.213,-5.213,-5.213,-5.2129,0,-5.134,-5.1429,-5.1454,-5.1516,-5.1614,-5.1623,-5.172,-5.1747,-5.1792,-5.1859,-5.1848,-5.1911,-5.1925,-5.1992,-5.2003,-5.2102,-5.2119,-5.2132,-5.2134,-5.2134,-5.2133,-5.2161,-5.2153,-5.2135,-5.2134,-5.2133,-5.2132,0,-5.1477,-5.1497,-5.1606,-5.1659,-5.1675,-5.1745,-5.1791,-5.1851,-5.187,-5.1956,-5.1976,-5.2007,-5.2085,-5.2104,-5.2196,-5.2204,-5.2322,-5.2314,-5.2304,-5.2304,-5.2374,-5.2368,-5.2596,-5.2627,-5.2434,-5.2435,-5.2437,0,-5.1574,-5.1642,-5.1702,-5.1746,-5.1778,-5.1849,-5.1894,-5.1905,-5.1953,-5.2019,-5.2071,-5.2147,-5.2209,-5.2333,-5.2365,-5.2435,-5.2431,-5.2506,-5.2441,-5.2439,-5.2434,-5.243,-5.2438,-5.2518,-5.2521,-5.2522,-5.2524,0,-5.1745,-5.1752,-5.1817,-5.1886,-5.194,-5.1995,-5.2047,-5.2084,-5.2102,-5.2156,-5.2235,-5.2283,-5.2377,-5.2454,-5.2525,-5.2555,-5.2544,-5.2543,-5.2564,-5.2565,-5.2557,-5.2564,-5.2339,-5.2538,-5.2537,-5.2536,-5.2535,-5.2534,-5.1867,-5.1926,-5.1978,-5.2051,-5.2092,-5.2141,-5.22,-5.2227,-5.2293,-5.237,-5.2372,-5.2459,-5.2511,-5.2605,-5.264,-5.2708,-5.2685,-5.2714,-5.2722,-5.273,-5.2737,-5.2544,-5.2721,-5.272,-5.272,-5.272,-5.2719,0,-5.2038,-5.207,-5.2137,-5.2211,-5.2269,-5.2251,-5.2308,-5.2358,-5.2434,-5.2483,-5.2544,-5.2635,-5.2709,-5.2746,-5.2819,-5.2866,-5.2863,-5.2885,-5.2883,-5.289,-5.2752,-5.2728,-5.2887,-5.2887,-5.2887,-5.2887,-5.2887,-5.2887,-5.2134,-5.2235,-5.2247,-5.2368,-5.2399,-5.2484,-5.2518,-5.2564,-5.2603,-5.2705,-5.2766,-5.2789,-5.2834,-5.291,-5.2977,-5.2986,-5.3014,-5.304,-5.3046,-5.2917,-5.29,-5.2884,-5.2861,-5.3046,-5.3046,-5.3179,-5.318,-5.3181]}]]